EHI
0 0 0 0 0 0 0 0 0 0 0 0 0 0 0 0 0 0 0 0 0 0 1 2 4 5 4 3 4 6 5 4 3 4 4 3 2 1 0 0 0 0 0 0
0 0 0 0 0 0 0 0 0 0 0 0 0 0 0 0 0 0 0 0 0 0 0 1 2 3 3 3 3 5 4 4 3 4 5 4 3 1 0 0 0 0 0 0
0 0 0 0 0 0 0 0 0 0 0 0 0 0 0 0 0 0 0 0 0 0 0 0 1 2 3 3 3 4 4 5 5 6 7 6 4 2 1 1 0 0 0 0
0 0 0 0 0 0 0 0 0 0 0 0 0 0 0 0 0 0 0 0 0 0 0 1 1 2 3 4 4 4 5 6 8 8 8 7 4 3 2 2 1 0 0 0
0 0 0 0 0 0 0 0 0 0 0 0 0 0 0 0 0 0 0 0 0 0 0 0 0 1 3 4 4 4 3 5 7 8 7 6 4 3 4 3 2 1 0 0
0 0 0 0 0 0 0 0 0 0 0 0 0 0 0 0 0 0 0 0 0 0 0 0 0 1 2 2 2 2 1 2 4 6 7 6 4 4 4 4 3 2 1 0
0 0 0 0 0 0 0 0 0 0 0 0 0 0 0 0 0 0 0 0 0 0 0 0 0 0 1 1 1 1 0 0 1 4 6 6 5 4 4 3 3 3 2 1
0 0 0 0 0 0 0 0 0 0 0 0 0 0 0 0 0 0 0 0 0 0 0 0 0 0 0 0 0 0 0 0 1 3 5 6 6 5 4 3 3 3 1 0
0 0 0 0 0 0 0 0 0 0 0 0 0 0 0 0 0 0 0 0 0 0 0 0 0 0 0 0 0 0 0 0 0 1 3 5 6 5 4 3 3 2 1 0
0 0 0 0 0 0 0 0 0 0 0 0 0 0 0 0 0 0 0 0 0 0 0 0 0 0 0 0 0 0 0 0 0 1 3 4 5 4 2 3 3 2 1 1
0 0 0 0 0 0 0 0 0 0 0 0 0 0 0 0 0 0 0 0 0 0 0 0 0 0 0 0 0 0 0 0 0 1 2 3 3 2 1 2 2 2 2 1
0 0 0 0 0 0 0 0 0 0 0 0 0 0 0 0 0 0 0 0 0 0 0 0 0 0 0 0 0 0 0 0 0 1 1 1 1 0 0 1 1 1 1 1
0 0 0 0 0 0 0 0 0 0 0 0 0 0 0 0 0 0 0 0 0 0 0 0 0 0 0 0 0 0 0 0 0 0 0 0 0 0 0 0 0 0 0 0
0 0 0 0 0 0 0 0 0 0 0 0 0 0 0 0 0 0 0 0 0 0 0 0 0 0 0 0 0 0 0 0 0 0 0 0 0 0 0 0 0 0 0 0
0 0 0 0 0 0 0 0 0 0 0 0 0 0 0 0 0 0 0 0 0 0 0 0 0 0 0 0 0 0 0 0 0 0 0 0 0 0 0 0 0 0 0 0
0 0 0 0 0 0 0 0 0 0 0 0 0 0 0 0 0 0 0 0 0 0 0 0 0 0 0 0 0 0 0 0 0 0 0 0 0 0 0 0 0 0 0 0
0 0 0 0 0 0 0 0 0 0 0 0 0 0 0 0 0 0 0 0 0 0 0 0 0 0 0 0 0 0 0 0 0 0 0 0 0 0 0 0 0 0 0 0
0 0 0 0 0 0 0 0 0 0 0 0 0 0 0 0 0 0 0 0 0 0 0 0 0 0 0 0 0 0 0 0 0 0 0 0 0 0 0 0 0 0 0 0
0 0 0 0 0 0 0 0 0 0 0 0 0 0 0 0 0 0 0 0 0 0 0 0 0 0 0 0 0 0 0 0 0 0 0 0 0 0 0 0 0 0 0 0
0 0 0 0 0 0 0 0 0 0 0 0 0 0 0 0 0 0 0 0 0 0 0 0 0 0 0 0 0 0 0 0 0 0 0 0 0 0 0 0 0 0 0 0
0 0 0 0 0 0 0 0 0 0 0 0 0 0 0 0 0 0 0 0 0 0 0 0 0 0 0 0 0 0 0 0 0 0 0 0 0 0 0 0 0 0 0 0
0 0 0 0 0 0 0 0 0 0 0 0 0 0 0 0 0 0 0 0 0 0 0 0 0 0 0 0 0 0 0 0 0 0 0 0 0 0 0 0 0 0 0 0
0 0 0 0 0 0 0 0 0 0 0 0 0 0 0 0 0 0 0 0 0 0 0 0 0 0 0 0 0 0 0 0 0 0 0 0 0 0 0 0 0 0 0 0
0 0 0 0 0 0 0 0 0 0 0 0 0 0 0 0 0 0 0 0 0 0 0 0 0 0 0 0 0 0 0 0 0 0 0 0 0 0 0 0 0 0 0 0
0 0 0 0 0 0 0 0 0 0 0 0 0 0 0 0 0 0 0 0 0 0 0 0 0 0 0 0 0 0 0 0 0 0 0 0 0 0 0 0 0 0 0 0
0 0 0 0 0 0 0 0 0 0 0 0 0 0 0 0 0 0 0 0 0 0 0 0 0 0 0 0 0 0 0 0 0 0 0 0 0 0 0 0 0 0 0 0
Wind_Speed
3 3 1 2 2 2 1 1 1 3 2 2 4 6 6 5 3 4 4 4 4 5 4 3 3 3 5 7 9 11 11 11 9 8 8 7 7 6 5 5 7 8 7 8
4 2 3 2 1 1 2 1 1 2 2 2 3 7 7 5 5 6 6 6 6 4 3 3 2 2 5 8 9 11 11 11 11 9 7 5 5 4 4 4 6 7 7 7
1 3 2 1 1 2 1 1 2 2 1 0 1 5 5 4 4 5 6 6 5 6 5 4 4 4 4 6 8 8 10 10 11 10 6 4 3 2 3 5 5 6 7 7
1 3 2 1 0 1 1 2 2 2 1 1 1 3 6 4 4 5 6 6 7 7 5 5 5 4 5 6 6 7 8 9 9 9 8 9 8 7 7 7 6 6 7 7
2 1 1 0 2 1 2 1 0 1 1 1 1 1 6 2 4 7 7 7 7 6 6 6 6 5 5 5 5 6 7 8 8 9 10 10 8 6 4 5 7 7 6 6
2 1 1 1 2 0 0 2 2 2 2 1 3 3 5 3 5 5 5 6 6 6 6 6 4 3 3 3 4 4 6 7 8 9 10 10 10 8 7 7 7 6 4 4
4 3 2 1 2 3 3 4 3 3 2 3 2 2 7 5 5 5 6 6 5 5 5 4 4 4 4 5 5 5 6 6 7 8 10 10 10 10 10 8 8 7 5 4
3 4 3 1 1 1 1 3 3 2 2 3 1 4 7 5 5 4 4 4 3 3 4 4 4 4 4 5 5 6 7 6 6 7 8 8 8 6 6 7 6 7 5 5
1 3 3 1 1 2 1 1 2 2 1 1 3 5 7 4 6 6 5 4 3 3 3 3 2 2 2 3 4 5 6 5 5 5 5 5 6 6 6 6 5 5 4 4
2 2 3 3 2 2 1 2 2 2 1 2 3 3 4 7 8 8 7 6 5 3 3 2 2 1 1 1 1 1 3 4 4 5 5 4 5 6 6 6 6 5 5 5
1 0 4 3 0 1 1 1 1 1 1 2 2 4 2 4 6 7 7 6 6 4 3 3 2 2 1 2 1 1 1 2 3 4 4 5 4 5 6 6 6 6 6 6
0 2 2 3 3 1 2 1 2 2 1 2 1 5 4 4 5 5 6 6 5 4 3 3 2 3 2 2 2 1 1 1 2 3 4 4 4 5 6 6 6 6 7 6
1 2 2 5 4 3 1 1 1 1 1 2 2 5 5 6 7 7 7 7 6 5 4 4 4 3 3 2 2 2 1 1 2 3 5 5 5 5 5 6 6 6 7 7
3 2 3 4 3 2 3 3 1 1 1 2 4 5 8 8 9 9 8 7 6 5 4 4 4 4 3 2 2 1 1 1 2 3 4 5 5 5 6 6 6 6 7 7
3 1 2 3 4 3 3 4 3 2 3 3 4 4 6 8 7 7 7 7 7 6 5 4 4 4 3 3 2 1 0 1 2 3 4 4 4 5 6 6 6 6 6 6
3 1 1 3 2 2 2 4 3 3 3 3 4 5 5 5 5 6 8 7 7 7 6 5 4 4 4 3 2 2 1 1 2 3 4 4 5 6 6 6 7 7 7 6
1 2 1 3 5 3 3 2 1 1 2 2 3 4 6 7 8 7 7 7 7 7 7 7 6 5 5 4 3 2 2 2 3 3 4 5 5 6 6 6 7 6 6 6
3 2 1 1 3 2 3 1 1 1 1 2 3 5 6 7 7 4 4 6 8 8 8 7 7 6 5 4 3 2 1 3 3 3 4 4 5 6 6 6 6 5 5 5
2 3 2 1 1 5 3 1 1 2 2 2 4 7 8 8 5 3 4 6 6 6 6 6 6 5 5 4 2 1 1 2 3 4 4 5 6 7 7 7 6 4 5 4
2 2 2 1 1 5 3 2 2 1 3 2 4 6 8 7 5 5 7 8 8 7 6 6 5 5 4 4 2 0 1 2 3 4 4 4 5 6 7 6 5 4 4 4
2 1 2 2 3 6 3 3 1 2 4 3 4 5 6 5 5 7 9 7 6 6 6 6 5 5 5 4 2 1 1 2 2 2 3 4 5 5 6 6 4 5 5 5
5 4 4 4 4 7 1 1 2 3 2 3 4 5 6 7 8 8 8 8 8 7 6 6 5 5 5 4 2 1 2 2 0 2 3 4 5 5 5 6 5 5 6 5
6 7 5 6 6 2 1 2 2 1 2 3 4 6 7 8 8 8 8 8 7 6 6 4 4 5 5 4 3 2 3 1 1 2 3 3 4 4 5 6 6 5 5 4
3 3 3 4 5 3 3 2 1 1 2 4 5 6 6 7 8 8 7 7 6 6 5 4 4 4 5 4 4 2 2 1 1 2 2 3 4 4 4 4 4 4 5 5
5 5 4 4 4 2 3 3 2 2 3 4 5 5 6 7 8 8 7 7 6 5 4 4 3 3 4 4 4 4 3 1 1 1 2 2 3 3 3 3 3 4 4 5
6 7 8 7 5 4 4 2 1 2 3 4 5 6 6 6 7 7 6 5 5 5 4 3 3 3 4 4 4 4 3 2 1 1 1 2 2 2 3 3 2 3 4 6
Wind_Direction
25 57 319 243 206 202 169 131 196 234 237 227 250 268 279 284 273 265 270 268 262 251 234 222 204 190 195 193 192 190 188 189 184 180 182 185 190 185 182 187 191 191 191 189
39 349 284 250 201 152 134 176 250 275 223 217 259 272 271 253 242 238 243 248 252 256 259 235 212 208 201 196 193 193 192 191 193 191 186 180 173 178 179 182 190 191 190 189
125 284 316 60 100 98 39 200 233 259 280 7 312 289 266 265 247 246 244 243 243 236 241 238 214 210 212 208 203 197 193 195 197 191 173 159 145 136 167 188 193 195 194 193
321 309 356 24 326 127 289 248 219 259 137 308 159 284 281 261 269 252 249 249 246 239 232 234 218 210 206 211 208 204 199 200 196 187 181 183 186 192 196 190 188 189 192 192
313 334 41 335 280 158 237 304 259 223 124 6 203 227 286 296 268 260 250 249 251 247 235 232 227 221 217 207 201 201 200 204 199 192 190 194 200 201 185 173 177 182 185 188
294 299 246 249 298 192 121 35 45 47 76 275 224 188 279 252 244 269 262 259 261 259 253 244 236 223 224 203 195 192 197 204 199 193 194 195 198 193 178 180 182 181 178 181
346 343 337 339 9 16 58 68 37 15 12 257 225 200 256 266 261 251 262 264 262 257 255 255 245 225 223 218 208 196 194 204 201 195 196 198 197 192 192 189 187 179 179 185
17 327 318 337 199 190 77 119 142 189 234 290 271 240 261 275 289 279 270 271 278 273 268 258 242 230 224 225 222 206 200 202 196 196 195 193 193 189 187 186 181 183 185 185
115 290 312 312 298 134 117 161 172 137 275 281 265 286 302 318 343 347 339 330 311 291 279 275 267 245 235 230 230 212 201 198 188 188 186 182 183 180 175 170 167 171 163 152
158 286 314 318 33 12 127 151 96 109 139 287 298 292 295 326 334 340 346 340 324 327 322 323 328 343 315 271 263 218 192 184 178 174 175 176 176 170 160 155 158 156 150 145
98 129 322 359 60 222 63 76 124 137 163 172 291 285 276 295 312 325 331 334 331 340 342 343 353 356 13 26 14 22 132 145 156 160 160 157 158 156 151 149 153 152 145 146
161 108 303 284 272 224 178 197 167 170 245 193 209 275 314 332 327 336 340 342 342 349 356 358 10 13 22 29 16 16 52 136 149 140 132 139 141 143 143 144 145 141 139 141
135 99 5 347 347 10 21 289 209 182 170 198 209 273 329 3 1 359 357 351 349 358 8 11 11 14 12 17 13 10 27 97 119 129 131 131 136 138 139 138 135 135 135 133
113 124 167 206 248 296 305 314 287 156 198 240 237 276 323 346 350 349 352 353 353 352 1 6 358 353 352 358 2 2 18 71 113 126 132 135 140 139 135 131 128 129 129 129
84 129 253 265 273 266 270 282 280 234 227 230 271 288 310 326 330 335 342 349 354 352 354 354 341 334 336 341 342 343 15 88 118 130 132 137 132 126 125 123 122 121 121 124
61 98 336 317 324 287 282 284 275 266 268 263 284 293 309 318 334 344 346 352 354 346 340 339 333 324 315 306 304 306 257 158 132 139 143 135 130 127 129 129 126 122 120 120
80 99 61 302 318 335 300 285 255 270 281 268 275 294 330 333 337 336 342 352 346 339 338 336 329 318 310 300 280 264 239 173 153 150 144 141 141 140 139 134 130 130 129 124
133 117 127 321 5 281 262 320 281 253 328 344 322 327 332 321 314 324 344 344 339 336 333 330 326 319 314 306 294 265 201 169 164 159 153 152 148 146 143 139 139 136 131 131
152 137 116 104 293 281 290 318 348 295 299 12 330 329 332 329 324 331 353 345 328 323 319 315 313 308 310 312 305 252 186 170 170 175 171 168 158 153 151 150 146 137 133 131
100 103 118 137 223 250 258 284 305 202 274 349 341 336 335 342 340 319 337 333 330 328 325 325 326 327 327 326 328 207 204 187 203 201 185 170 164 161 160 155 146 137 139 143
135 128 159 189 238 265 262 296 353 173 271 329 332 329 331 320 293 301 315 321 325 324 325 331 335 337 330 328 332 309 246 236 233 186 160 159 161 160 153 145 142 144 143 143
176 174 191 179 216 255 256 83 154 237 303 311 311 313 311 304 308 314 318 321 327 329 332 337 339 340 338 343 358 352 320 303 202 153 154 155 152 148 146 146 145 147 150 153
196 191 189 197 216 237 204 196 216 226 277 292 300 306 308 308 311 314 315 319 324 326 331 337 340 341 347 354 7 356 332 342 115 132 146 146 141 141 148 152 154 155 162 167
240 182 187 244 252 240 238 226 242 263 275 297 304 305 308 307 311 314 314 316 321 325 328 333 341 348 348 352 358 351 337 358 100 132 142 140 141 143 148 155 163 171 178 182
210 174 192 243 257 268 243 222 255 309 320 323 322 317 316 313 310 310 309 312 315 320 326 335 338 342 341 350 356 355 359 25 85 117 131 137 144 153 160 170 185 192 199 194
195 180 181 214 212 196 232 232 245 284 303 313 319 321 322 314 307 309 310 312 314 317 324 332 337 342 345 352 351 352 357 16 93 117 133 148 155 162 167 172 188 214 214 217